Location: Moscow
(30.9132°N, 94.8252°W)
Time: 00:37:56
(UTC+00:00)

SJ-12 - Pass Details

Date: 15 November 2025
Orbit: 517 x 528 km, 97.8° (Epoch: 11 December)

Event Time Altitude Azimuth Distance (km) Brightness Sun altitude
Rises 00:04:49 0° 167° (SSE) 2,651 7.4 -9.6°
Reaches altitude 10° 00:06:54 10° 167° (SSE) 1,763 6.4 -10.0°
Maximum altitude 00:10:43 89° 105° (ESE) 530 3.7 -10.8°
Drops below altitude 10° 00:14:32 10° 348° (NNW) 1,765 6.4 -11.6°
Sets 00:16:38 0° 349° (N) 2,654 7.3 -12.0°
